Date,TemperatureHighF,TemperatureAvgF,TemperatureLowF,DewpointHighF,DewpointAvgF,DewpointLowF,HumidityHigh,HumidityAvg,HumidityLow,PressureMaxIn,PressureMinIn,WindSpeedMaxMPH,WindSpeedAvgMPH,GustSpeedMaxMPH,PrecipitationSumIn
2013-1-13,47.0,38.5,31.9,28.0,19.0,-99.9,65,55,45,30.27,30.16,12,-21,0,0.00
2013-1-14,46.3,35.6,27.0,28.0,22.8,17.0,75,60,44,30.34,30.19,10,3,0,0.00
2013-1-15,35.7,33.2,29.6,29.0,25.5,17.0,83,74,57,30.37,30.19,10,2,0,0.00
2013-1-16,49.1,35.3,22.7,22.0,18.6,15.0,75,54,27,30.45,30.30,7,1,0,0.00
2013-1-17,61.4,44.3,28.3,35.0,29.7,22.0,82,60,35,30.58,30.43,11,1,0,0.00
2013-1-18,63.7,43.6,26.8,36.0,29.9,23.0,87,62,34,30.59,30.38,6,1,0,0.00
2013-1-19,66.1,46.4,32.8,45.0,36.6,28.0,92,71,42,30.38,30.22,9,1,0,0.00
2013-1-20,73.1,50.4,32.1,46.0,37.5,29.0,90,66,29,30.32,30.15,11,1,0,0.00
2013-1-21,67.6,51.8,36.3,53.0,42.7,33.0,93,73,49,30.30,30.20,4,0,0,0.00
2013-1-22,70.0,54.1,39.9,50.0,42.8,35.0,86,68,41,30.34,30.24,9,1,0,0.00
2013-1-23,72.3,56.9,43.6,56.0,49.4,40.0,91,77,54,30.37,30.24,11,2,0,0.00
2013-1-24,80.0,60.8,46.2,61.0,52.7,44.0,93,77,46,30.30,30.13,9,1,0,0.00
2013-1-25,77.9,64.1,51.7,60.0,55.7,46.0,91,76,47,30.16,30.05,6,2,0,0.01
2013-1-26,63.0,55.0,48.0,57.0,51.0,45.0,92,86,78,30.20,30.09,6,1,0,0.00
2013-1-27,75.7,65.5,57.5,62.0,58.3,54.0,89,79,58,30.12,29.96,11,4,0,0.00
2013-1-28,75.3,68.7,65.7,64.0,62.6,61.0,89,81,66,30.02,29.84,12,4,0,0.00
2013-1-29,79.5,64.7,50.5,64.0,50.3,18.0,91,63,28,29.83,29.53,16,5,0,0.01
2013-1-30,53.3,44.5,29.1,25.0,18.9,14.0,64,38,22,30.30,29.81,20,4,0,0.00
2013-1-31,66.5,45.1,26.8,26.0,22.0,17.0,70,45,20,30.39,30.26,10,1,0,0.00
2013-2-1,68.3,52.3,34.9,43.0,34.1,25.0,74,52,33,30.41,30.22,12,2,0,0.00
2013-2-2,73.3,57.1,39.9,52.0,43.9,36.0,90,64,40,30.35,30.20,5,1,0,0.00
2013-2-3,68.8,55.7,41.4,50.0,40.1,30.0,77,58,30,30.38,30.02,9,2,0,0.00
2013-2-4,74.6,60.5,47.4,57.0,51.0,43.0,87,72,45,30.01,29.82,6,2,0,0.01
2013-2-5,77.1,61.0,41.8,47.0,41.3,36.0,87,53,25,30.03,29.91,5,0,0,0.00
2013-2-6,75.8,63.5,57.0,58.0,54.0,44.0,89,72,53,30.00,29.83,7,2,0,0.00
2013-2-7,80.0,65.0,54.1,60.0,49.6,36.0,92,64,25,30.12,29.90,13,2,0,0.01
2013-2-8,66.0,54.5,43.8,42.0,32.6,27.0,71,47,26,30.26,30.11,17,2,0,0.00
2013-2-9,66.3,56.8,49.2,63.0,51.9,29.0,93,85,45,30.12,29.81,11,3,0,0.00
2013-2-10,66.2,58.1,51.6,63.0,36.8,24.0,93,49,24,30.05,29.79,10,2,0,0.51
2013-2-11,56.0,51.8,47.4,45.0,40.5,33.0,90,67,43,30.11,30.00,11,2,0,0.05
2013-2-12,68.9,54.4,39.7,54.0,39.5,23.0,93,64,23,30.14,29.89,11,3,0,0.01
2013-2-13,59.0,43.9,31.4,33.0,28.7,25.0,85,59,28,30.22,30.09,5,1,0,0.00
2013-2-14,70.2,49.0,31.6,38.0,32.2,26.0,85,58,26,30.20,30.06,7,1,0,0.00
2013-2-15,56.0,45.3,33.6,38.0,32.7,23.0,80,62,49,30.47,30.14,14,2,0,0.00
2013-2-16,64.3,44.8,25.8,29.0,25.4,20.0,80,51,25,30.54,30.28,5,1,0,0.00
2013-2-17,68.2,52.0,32.4,50.0,36.1,24.0,77,57,34,30.28,29.98,13,4,0,0.00
2013-2-18,78.4,63.9,51.4,56.0,41.3,23.0,82,51,14,30.12,29.87,13,4,0,0.00
2013-2-19,63.5,54.3,43.7,31.0,28.3,25.0,55,38,24,30.28,30.09,16,4,0,0.00
2013-2-20,64.6,55.0,49.4,61.0,47.5,22.0,94,79,29,30.11,29.66,15,4,0,0.01
2013-2-21,72.4,61.0,43.6,62.0,37.3,22.0,89,48,16,29.91,29.61,15,3,0,0.01
2013-2-22,61.4,47.4,39.2,36.0,31.5,26.0,83,56,34,30.10,29.92,6,2,0,0.00
2013-2-23,69.6,50.0,31.9,38.0,29.2,25.0,79,50,19,30.14,29.93,11,1,0,0.00
2013-2-24,71.1,56.4,36.2,55.0,45.0,31.0,85,67,47,29.95,29.59,12,3,0,0.00
2013-2-25,61.4,49.8,40.2,57.0,30.9,21.0,85,50,28,29.93,29.59,18,7,0,0.00
2013-2-26,67.0,49.9,34.7,28.0,24.8,21.0,65,41,21,30.04,29.89,6,1,0,0.00
2013-2-27,58.0,48.2,39.5,32.0,24.3,18.0,65,40,30,30.31,29.91,15,3,0,0.00
2013-2-28,58.2,44.5,31.5,29.0,23.5,19.0,63,46,25,30.40,30.27,13,2,0,0.00
2013-3-1,66.4,47.8,26.3,28.0,21.4,14.0,74,41,14,30.39,30.22,12,2,0,0.00
2013-3-2,61.8,47.4,36.7,30.0,26.7,23.0,67,46,30,30.48,30.31,15,1,0,0.00
2013-3-3,74.3,56.6,34.6,39.0,30.5,25.0,70,41,22,30.32,29.93,14,3,0,0.00
2013-3-4,90.7,66.1,49.6,47.0,38.4,25.0,78,43,11,29.94,29.73,9,2,0,0.00
2013-3-5,66.0,50.6,32.7,40.0,22.3,11.0,62,36,17,30.43,29.80,18,4,0,0.00
2013-3-6,62.2,46.2,30.9,20.0,16.7,13.0,55,33,17,30.51,30.24,10,1,0,0.00
2013-3-7,68.9,54.9,36.5,54.0,40.9,20.0,85,60,48,30.28,30.13,14,3,0,0.00
2013-3-8,65.4,60.7,56.4,60.0,57.1,53.0,95,87,80,30.14,29.98,10,3,0,0.00
2013-3-9,73.2,64.1,56.4,64.0,59.9,51.0,92,86,71,29.97,29.64,13,4,0,1.16
2013-3-10,60.1,53.2,37.9,53.0,35.2,28.0,87,52,33,30.19,29.78,15,4,0,0.04
2013-3-11,67.2,46.7,32.1,35.0,27.5,21.0,79,52,24,30.26,30.07,8,1,0,0.00
2013-3-12,78.9,56.7,34.6,37.0,31.9,28.0,80,46,17,30.30,30.12,11,2,0,0.00
2013-3-13,76.5,59.7,41.6,41.0,36.3,31.0,68,44,26,30.46,30.30,11,2,0,0.00
2013-3-14,75.3,61.4,44.0,49.0,44.1,35.0,85,56,34,30.39,30.23,10,3,0,0.00
2013-3-15,78.7,64.7,51.6,53.0,49.2,43.0,86,60,36,30.25,29.99,13,3,0,0.00
2013-3-16,83.3,67.7,54.1,59.0,52.5,48.0,87,62,33,29.99,29.73,10,3,0,0.00
2013-3-17,86.4,70.7,62.3,61.0,57.2,51.0,82,65,29,29.80,29.63,11,2,0,0.00
2013-3-18,83.3,69.6,58.0,61.0,48.1,34.0,92,54,20,29.95,29.71,11,2,0,0.00
2013-3-19,83.3,65.4,44.5,61.0,51.3,39.0,87,63,37,30.05,29.83,15,2,0,0.21
2013-3-20,68.7,58.2,48.7,50.0,41.3,32.0,89,58,27,30.27,30.04,14,4,0,0.15
2013-3-21,70.5,62.5,53.5,57.0,49.4,32.0,82,63,38,30.04,29.63,14,4,0,0.00
2013-3-22,83.1,69.3,59.1,63.0,57.6,48.0,92,68,46,29.73,29.64,9,2,0,0.00
2013-3-23,86.8,63.7,48.9,59.0,49.3,39.0,87,64,20,29.79,29.59,14,2,0,0.00
2013-3-24,66.4,47.3,36.6,50.0,26.1,19.0,78,46,27,30.23,29.79,20,5,0,0.00
2013-3-25,56.7,44.5,33.4,22.0,17.8,12.0,53,36,20,30.47,30.23,10,2,0,0.00
2013-3-26,64.0,47.4,27.8,25.0,21.5,20.0,76,40,21,30.55,30.33,9,1,0,0.00
2013-3-27,66.3,53.9,41.3,46.0,37.0,22.0,74,54,36,30.35,30.18,11,3,0,0.00
2013-3-28,67.6,60.0,52.2,57.0,53.0,46.0,85,78,66,30.21,30.14,11,2,0,0.00
2013-3-29,73.5,65.0,55.1,57.0,55.1,52.0,89,72,55,30.18,30.06,10,3,0,0.00
2013-3-30,81.8,68.1,60.3,62.0,58.6,55.0,91,74,47,30.09,29.90,9,2,0,0.01
2013-3-31,79.4,66.8,55.5,64.0,59.2,51.0,89,77,55,30.00,29.86,7,1,0,0.03
2013-4-1,82.8,67.9,52.9,63.0,57.3,50.0,92,72,44,30.09,29.90,6,1,0,0.00
2013-4-2,71.7,63.9,48.5,63.0,58.7,45.0,92,83,70,30.00,29.84,11,2,0,0.53
2013-4-3,53.4,47.2,44.0,51.0,44.6,41.0,92,90,87,30.22,29.90,14,2,0,0.21
2013-4-4,63.6,49.4,41.5,44.0,40.5,37.0,92,73,49,30.32,30.17,9,2,0,0.01
2013-4-5,75.2,54.9,35.2,49.0,42.3,32.0,91,66,34,30.33,30.08,5,1,0,0.00
2013-4-6,78.5,63.4,48.3,58.0,51.7,44.0,88,67,49,30.08,29.87,12,3,0,0.00
2013-4-7,79.8,68.1,59.6,64.0,59.4,55.0,88,75,56,29.91,29.74,11,3,0,0.00
2013-4-8,74.7,67.2,63.0,65.0,62.1,59.0,90,83,71,29.81,29.64,15,3,0,0.00
2013-4-9,85.7,72.7,66.0,67.0,64.4,62.0,92,77,48,29.69,29.55,15,4,0,0.00
2013-4-10,71.1,52.0,39.3,65.0,43.7,35.0,86,74,58,30.03,29.63,12,4,0,0.01
2013-4-11,71.5,56.1,42.5,41.0,35.9,28.0,72,49,30,30.03,29.81,7,2,0,0.00
2013-4-12,79.8,60.7,40.1,49.0,41.9,36.0,85,55,29,30.04,29.87,9,1,0,0.00
2013-4-13,76.1,63.5,47.0,53.0,48.1,38.0,87,59,33,29.98,29.78,9,1,0,0.00
2013-4-14,90.6,72.7,56.0,64.0,57.0,51.0,90,62,31,29.81,29.60,9,2,0,0.00
2013-4-15,90.4,78.6,66.5,64.0,61.1,57.0,89,58,33,29.77,29.67,10,2,0,0.00
2013-4-16,87.3,75.2,65.1,67.0,64.2,60.0,87,70,49,29.84,29.75,10,2,0,0.00
2013-4-17,79.8,73.2,70.5,69.0,67.6,66.0,90,83,69,29.84,29.64,13,3,0,0.00
2013-4-18,72.0,59.3,48.0,69.0,46.2,31.0,91,64,40,30.16,29.62,16,4,0,0.07
2013-4-19,65.7,52.4,40.4,32.0,27.6,22.0,68,41,22,30.38,30.16,10,2,0,0.00
2013-4-20,72.0,55.3,34.4,44.0,32.9,28.0,78,47,25,30.27,30.01,9,2,0,0.00
2013-4-21,77.4,63.2,52.3,55.0,50.6,45.0,83,65,42,30.17,30.01,11,1,0,0.00
2013-4-22,81.2,68.1,58.1,61.0,56.5,53.0,87,68,45,30.10,29.87,11,2,0,0.00
2013-4-23,71.2,60.3,44.0,62.0,51.9,37.0,88,74,57,30.16,29.82,10,3,0,0.00
2013-4-24,59.0,49.3,40.7,37.0,33.5,30.0,78,57,40,30.34,30.17,12,3,0,0.00
2013-4-25,66.0,58.7,52.2,47.0,41.0,38.0,63,53,37,30.37,30.19,9,2,0,0.00
2013-4-26,75.8,66.1,56.5,65.0,59.6,48.0,92,80,66,30.18,30.03,6,1,0,0.00
2013-4-27,82.7,72.4,66.2,66.0,63.6,60.0,90,75,51,30.08,29.91,9,1,0,0.03
2013-4-28,84.1,71.9,59.7,63.0,59.2,55.0,92,68,38,30.00,29.84,9,1,0,0.01
2013-4-29,84.3,70.7,61.2,63.0,60.4,57.0,92,73,43,29.91,29.74,6,1,0,0.81
2013-4-30,82.8,68.9,57.7,65.0,60.9,56.0,94,78,50,29.83,29.71,5,0,0,0.01
2013-5-1,85.6,73.8,59.7,67.0,64.0,56.0,88,73,52,30.04,29.78,9,1,0,0.35
2013-5-2,61.3,48.6,43.6,58.0,42.2,34.0,90,79,66,30.43,29.94,16,4,0,0.39
2013-5-3,64.5,51.0,39.7,37.0,31.4,29.0,78,50,27,30.45,30.14,15,2,0,0.00
2013-5-4,81.7,60.0,37.9,43.0,35.9,32.0,81,47,17,30.14,29.92,5,0,0,0.00
2013-5-5,75.6,59.9,44.2,46.0,41.8,35.0,78,54,31,30.18,30.04,8,1,0,0.00
2013-5-6,73.9,59.4,44.9,53.0,46.8,41.0,87,65,42,30.18,30.04,4,0,0,0.00
2013-5-7,82.1,65.9,46.4,55.0,49.5,43.0,89,60,33,30.12,29.95,4,1,0,0.00
2013-5-8,76.4,68.5,61.4,64.0,60.3,55.0,86,75,65,29.99,29.87,7,1,0,0.00
2013-5-9,71.3,66.8,56.9,69.0,62.8,54.0,91,87,81,29.96,29.85,7,0,0,0.64
2013-5-10,83.2,67.3,57.9,64.0,59.1,56.0,93,77,48,30.07,29.86,0,0,0,0.32
2013-5-11,78.2,67.3,58.9,58.0,54.6,49.0,89,66,38,30.20,30.07,0,0,0,0.00
2013-5-12,77.7,64.1,52.1,54.0,50.0,47.0,84,62,37,30.29,30.14,0,0,0,0.00
2013-5-13,83.6,66.2,45.7,53.0,48.5,42.0,89,57,29,30.30,30.16,0,0,0,0.00
2013-5-14,85.4,71.2,55.6,65.0,57.4,51.0,88,65,33,30.23,29.98,0,0,0,0.00
2013-5-15,87.3,73.5,62.5,68.0,65.3,60.0,93,77,48,30.09,29.78,0,0,0,0.25
2013-5-16,92.3,79.5,70.6,72.0,68.4,65.0,86,70,48,29.82,29.68,0,0,0,0.00
2013-5-17,96.2,82.1,71.0,73.0,69.9,67.0,88,69,41,29.86,29.74,8,0,0,0.00
2013-5-18,91.3,79.4,69.6,71.0,67.0,64.0,86,67,48,29.88,29.75,11,1,0,0.00
2013-5-19,90.4,79.0,69.1,71.0,67.5,64.0,86,69,52,29.80,29.69,13,1,0,0.00
2013-5-20,91.4,79.3,69.6,72.0,68.0,65.0,87,70,48,29.80,29.64,14,2,0,0.00
2013-5-21,85.1,75.2,67.6,72.0,65.7,55.0,87,73,58,29.89,29.70,9,1,0,0.00
2013-5-22,91.3,74.9,52.9,68.0,57.7,49.0,87,59,34,29.94,29.80,6,0,0,0.00
2013-5-23,87.0,77.3,69.9,71.0,68.5,66.0,89,75,55,30.01,29.84,6,1,0,0.00
2013-5-24,74.9,68.8,66.0,69.0,64.7,61.0,93,87,78,30.12,29.98,9,1,0,0.47
2013-5-25,78.9,70.9,66.3,69.0,66.2,64.0,93,85,71,30.14,30.01,10,2,0,0.30
2013-5-26,83.3,73.3,68.7,72.0,67.6,63.0,89,82,65,30.07,29.96,4,0,0,0.01
2013-5-27,86.2,74.5,67.8,71.0,67.8,64.0,90,80,60,29.98,29.81,11,1,0,0.00
2013-5-28,85.0,75.9,68.9,69.0,66.6,64.0,84,74,57,29.87,29.73,17,2,0,0.00
2013-5-29,82.2,75.4,71.4,71.0,68.2,66.0,84,78,66,29.80,29.66,12,3,0,0.00
2013-5-30,86.2,76.7,71.5,72.0,69.0,66.0,90,77,59,29.82,29.73,11,1,0,0.00
2013-5-31,91.3,79.7,72.0,75.0,70.9,68.0,86,75,58,29.86,29.72,5,1,0,0.00
2013-6-1,92.9,81.5,73.0,74.0,70.6,68.0,84,71,49,29.91,29.75,5,1,0,0.00
2013-6-2,86.7,76.0,65.3,72.0,61.7,55.0,87,64,38,30.05,29.86,6,1,0,0.16
2013-6-3,91.2,75.5,59.3,68.0,62.2,56.0,90,66,44,29.99,29.82,6,1,0,0.00
2013-6-4,91.9,79.0,67.2,67.0,63.5,60.0,90,62,40,29.88,29.78,8,1,0,0.00
2013-6-5,92.8,79.1,67.5,67.0,64.6,62.0,87,64,40,29.85,29.73,8,1,0,0.00
2013-6-6,93.9,80.2,67.7,67.0,63.7,61.0,87,60,34,29.93,29.75,8,1,0,0.00
2013-6-7,78.4,70.7,60.9,62.0,60.5,56.0,83,71,55,30.02,29.88,3,0,0,0.00
2013-6-8,86.2,73.3,56.1,68.0,61.6,52.0,88,68,52,29.95,29.79,6,1,0,0.00
2013-6-9,91.2,76.7,67.9,70.0,67.2,64.0,89,74,47,29.96,29.82,6,0,0,0.42
2013-6-10,92.9,78.7,64.7,71.0,65.9,62.0,93,68,37,30.00,29.91,10,1,0,0.01
2013-6-11,91.1,79.5,71.6,69.0,68.1,67.0,88,70,45,30.01,29.93,12,1,0,0.00
2013-6-12,91.4,79.5,71.8,70.0,68.4,64.0,88,71,48,30.03,29.91,11,1,0,0.00
2013-6-13,90.9,77.2,70.1,71.0,69.0,64.0,89,77,50,30.05,29.93,5,0,0,0.05
2013-6-14,80.2,74.7,70.9,72.0,69.2,66.0,92,83,68,30.00,29.92,5,0,0,0.06
2013-6-15,87.1,77.6,72.5,72.0,69.7,66.0,92,78,53,30.00,29.90,5,0,0,0.02
2013-6-16,91.9,81.4,72.8,72.0,69.1,68.0,86,68,46,30.00,29.89,5,1,0,0.00
2013-6-17,94.0,82.3,72.3,72.0,69.4,68.0,86,67,46,29.98,29.82,4,0,0,0.00
2013-6-18,91.4,79.7,68.4,71.0,67.7,64.0,91,69,45,29.99,29.86,4,0,0,0.35
2013-6-19,93.3,81.5,71.2,70.0,66.7,63.0,89,63,41,29.95,29.88,11,1,0,0.00
2013-6-20,91.5,81.3,71.5,70.0,67.2,65.0,85,64,42,30.03,29.92,5,1,0,0.00
2013-6-21,92.0,81.8,73.1,70.0,66.6,61.0,83,62,41,30.04,29.94,13,1,0,0.00
2013-6-22,91.8,82.0,72.4,69.0,66.2,63.0,83,61,40,30.00,29.87,11,2,0,0.00
2013-6-23,91.4,81.0,70.6,68.0,65.6,60.0,85,61,39,29.95,29.85,13,1,0,0.00
2013-6-24,92.4,81.2,71.6,69.0,67.4,65.0,85,65,41,29.99,29.86,7,2,0,0.00
2013-6-25,95.5,83.5,74.3,70.0,67.4,63.0,80,61,39,29.97,29.83,9,2,0,0.00
2013-6-26,95.8,82.9,74.1,73.0,69.0,66.0,84,65,44,29.95,29.86,9,1,0,0.00
2013-6-27,98.9,83.7,71.9,70.0,63.1,54.0,84,55,23,30.00,29.89,4,0,0,0.01
2013-6-28,102.2,84.9,68.4,70.0,64.0,58.0,88,54,27,29.98,29.80,6,0,0,0.00
2013-6-29,103.7,88.3,69.2,67.0,62.0,60.0,72,45,25,29.87,29.72,4,0,0,0.00
2013-6-30,84.8,76.1,67.6,69.0,64.6,58.0,91,70,44,29.96,29.80,11,0,0,0.50
2013-7-1,84.5,73.7,61.7,65.0,56.9,52.0,85,58,35,30.05,29.89,6,0,0,0.00
2013-7-2,88.4,73.2,57.3,59.0,52.1,45.0,83,53,24,30.13,29.99,10,1,0,0.00
2013-7-3,91.0,74.7,57.3,55.0,49.9,45.0,78,46,21,30.06,29.90,5,0,0,0.00
2013-7-4,91.4,75.6,59.9,63.0,56.6,50.0,90,55,29,29.99,29.89,6,0,0,0.00
2013-7-5,93.2,79.6,62.5,66.0,59.3,56.0,85,53,31,29.99,29.84,5,1,0,0.00
2013-7-6,92.8,79.4,65.2,67.0,61.7,58.0,86,58,32,29.94,29.81,6,1,0,0.00
2013-7-7,94.0,81.9,70.2,69.0,66.9,64.0,87,63,38,29.96,29.86,7,1,0,0.00
2013-7-8,85.9,78.0,73.3,71.0,68.8,65.0,85,74,52,30.10,29.95,8,0,0,0.00
2013-7-9,92.8,82.0,71.4,70.0,67.9,65.0,89,65,43,30.13,30.00,10,1,0,0.00
2013-7-10,97.0,83.9,71.5,70.0,67.0,61.0,87,60,31,30.08,29.91,6,0,0,0.00
2013-7-11,96.4,83.1,72.7,71.0,66.1,62.0,84,59,33,29.99,29.86,5,0,0,0.00
2013-7-12,96.5,82.5,68.9,70.0,63.1,56.0,85,55,28,29.95,29.86,7,1,0,0.00
2013-7-13,98.5,85.0,68.0,66.0,61.7,59.0,79,48,29,29.97,29.82,7,1,0,0.00
2013-7-14,95.8,80.2,71.5,71.0,64.5,59.0,78,60,34,29.89,29.81,7,1,0,0.03
2013-7-15,74.7,71.3,65.7,71.0,67.4,63.0,92,87,78,30.03,29.85,5,0,0,0.47
2013-7-16,81.2,73.8,69.9,72.0,68.7,67.0,92,84,67,30.14,30.01,7,1,0,0.28
2013-7-17,82.2,73.3,69.3,73.0,68.2,66.0,92,84,64,30.18,30.10,9,1,0,0.15
2013-7-18,88.4,76.2,69.2,73.0,67.7,64.0,91,77,47,30.18,29.99,9,0,0,0.50
2013-7-19,91.8,79.4,68.2,70.0,65.8,62.0,92,66,40,30.08,29.90,5,0,0,0.00
2013-7-20,91.8,79.5,69.1,70.0,66.9,63.0,90,67,44,29.99,29.83,4,0,0,0.00
2013-7-21,92.0,80.7,71.0,72.0,69.1,65.0,90,69,48,29.94,29.85,6,1,0,0.00
2013-7-22,93.7,83.2,74.4,73.0,70.2,67.0,85,67,44,29.96,29.86,9,1,0,0.00
2013-7-23,96.4,84.5,76.6,72.0,67.9,61.0,81,60,32,29.97,29.84,5,1,0,0.00
2013-7-24,94.7,83.7,73.6,73.0,69.0,64.0,86,64,38,29.98,29.85,4,0,0,0.00
2013-7-25,96.5,84.6,73.0,70.0,67.0,60.0,86,58,32,30.00,29.93,6,1,0,0.00
2013-7-26,98.6,85.6,72.3,71.0,67.8,65.0,85,57,35,29.99,29.84,5,0,0,0.00
2013-7-27,89.5,81.1,72.2,70.0,66.9,63.0,78,63,47,29.97,29.87,9,1,0,0.00
2013-7-28,96.8,80.6,66.0,73.0,67.2,62.0,89,66,39,29.95,29.82,10,1,0,0.00
2013-7-29,97.6,84.4,75.5,71.0,67.9,62.0,82,61,31,29.98,29.89,15,1,0,0.00
2013-7-30,99.0,85.3,74.2,70.0,67.1,61.0,81,58,29,30.05,29.93,6,1,0,0.00
2013-7-31,101.0,85.2,72.6,68.0,62.7,58.0,80,51,25,30.07,29.90,5,0,0,0.00
2013-8-1,99.3,85.2,72.2,70.0,64.9,59.0,78,53,33,30.01,29.87,9,1,0,0.00
2013-8-2,99.8,86.1,70.8,66.0,62.1,57.0,74,48,26,29.95,29.84,9,0,0,0.00
2013-8-3,98.2,85.6,73.1,70.0,65.1,60.0,81,53,28,29.99,29.89,7,1,0,0.00
2013-8-4,96.4,85.0,73.4,70.0,68.2,65.0,84,60,38,30.03,29.90,17,1,0,0.00
2013-8-5,100.4,85.7,72.6,71.0,66.0,62.0,80,54,29,30.00,29.84,7,0,0,0.00
2013-8-6,102.1,86.7,72.5,72.0,66.7,62.0,84,55,28,29.92,29.77,6,1,0,0.00
2013-8-7,103.0,87.4,73.5,72.0,66.8,58.0,85,54,29,29.89,29.75,10,1,0,0.00
2013-8-8,101.1,86.0,72.7,70.0,65.7,59.0,84,55,26,29.87,29.75,5,1,0,0.00
2013-8-9,100.5,86.1,72.2,70.0,60.7,53.0,84,48,22,29.96,29.83,7,0,0,0.00
2013-8-10,99.0,84.3,70.1,70.0,65.1,55.0,80,55,31,30.03,29.91,7,1,0,0.00
2013-8-11,97.3,82.3,70.4,71.0,67.6,64.0,86,63,36,30.06,29.93,7,0,0,0.00
2013-8-12,94.7,82.7,71.9,69.0,67.1,64.0,88,62,38,30.05,29.92,5,0,0,0.00
2013-8-13,100.0,86.3,73.8,69.0,65.3,60.0,82,53,28,30.01,29.86,8,1,0,0.00
2013-8-14,99.6,84.2,74.6,70.0,68.0,63.0,82,60,32,29.98,29.85,6,1,0,0.00
2013-8-15,92.5,77.8,69.7,73.0,67.7,62.0,87,73,38,30.00,29.88,5,0,0,0.01
2013-8-16,91.5,76.9,66.4,71.0,63.5,56.0,91,67,31,30.08,29.94,10,1,0,0.01
2013-8-17,94.3,79.2,63.3,69.0,60.3,55.0,86,56,29,30.06,29.92,6,1,0,0.00
2013-8-18,94.7,79.4,62.5,62.0,57.8,54.0,75,50,30,30.05,29.96,7,0,0,0.00
2013-8-19,93.4,79.5,64.1,63.0,59.5,55.0,76,53,33,30.05,29.91,6,0,0,0.00
2013-8-20,93.5,80.6,64.9,67.0,61.0,55.0,80,55,29,30.02,29.92,12,1,0,0.00
2013-8-21,94.8,81.0,71.0,69.0,66.3,63.0,85,63,35,30.06,29.93,7,1,0,0.00
2013-8-22,94.3,81.8,69.5,70.0,65.9,63.0,87,61,37,30.07,29.91,6,0,0,0.00
2013-8-23,96.1,82.3,70.0,70.0,65.5,61.0,84,59,35,30.01,29.88,10,1,0,0.00
2013-8-24,96.6,83.5,70.5,69.0,66.0,63.0,82,58,36,30.04,29.91,9,0,0,0.00
2013-8-25,95.4,83.0,69.9,69.0,66.8,64.0,86,60,37,30.07,29.98,7,1,0,0.00
2013-8-26,89.6,78.2,72.6,71.0,67.7,66.0,86,71,46,30.10,30.00,8,1,0,0.01
2013-8-27,86.6,76.7,70.5,74.0,68.7,64.0,93,78,50,30.10,30.01,10,0,0,0.79
2013-8-28,94.7,80.5,69.5,70.0,66.6,63.0,91,66,36,30.11,29.98,4,0,0,0.00
2013-8-29,96.9,82.2,70.9,71.0,65.3,62.0,89,60,32,30.09,29.95,3,0,0,0.00
2013-8-30,98.9,83.7,70.6,67.0,64.3,62.0,79,55,31,30.02,29.87,6,0,0,0.00
2013-8-31,98.5,84.9,70.0,69.0,65.3,64.0,83,55,33,29.93,29.78,7,0,0,0.00
2013-9-1,98.2,84.4,72.0,71.0,66.2,64.0,85,57,34,29.90,29.78,6,0,0,0.00
2013-9-2,94.5,83.2,74.0,70.0,67.6,64.0,81,61,40,29.95,29.83,9,1,0,0.00
2013-9-3,97.3,81.6,68.7,69.0,66.3,61.0,88,64,31,30.00,29.87,5,0,0,0.02
2013-9-4,95.5,79.1,71.1,71.0,67.3,64.0,91,69,37,30.04,29.93,7,0,0,0.06
2013-9-5,93.8,81.5,69.7,70.0,66.8,64.0,88,64,39,30.10,29.98,6,0,0,0.00
2013-9-6,94.3,81.8,69.9,71.0,66.8,64.0,88,63,39,30.08,29.94,10,0,0,0.00
2013-9-7,92.9,78.6,67.5,74.0,67.5,63.0,88,71,41,30.03,29.88,6,0,0,0.03
2013-9-8,88.2,75.7,71.2,70.0,68.4,66.0,90,79,50,29.97,29.88,9,0,0,0.06
2013-9-9,88.4,76.5,68.4,69.0,66.7,64.0,92,74,46,30.00,29.89,12,1,0,0.00
2013-9-10,84.6,73.9,68.9,72.0,68.7,66.0,92,84,58,30.06,29.96,6,1,0,0.11
2013-9-11,87.3,76.5,68.2,72.0,67.9,63.0,93,76,48,30.11,29.99,7,1,0,0.01
2013-9-12,90.7,77.2,65.5,69.0,64.5,61.0,92,68,38,30.08,29.93,7,1,0,0.00
2013-9-13,92.8,79.5,68.1,69.0,62.5,58.0,89,60,32,29.98,29.82,10,1,0,0.00
2013-9-14,91.8,79.1,64.7,67.0,62.9,57.0,86,60,38,29.94,29.83,12,1,0,0.00
2013-9-15,89.5,78.7,68.4,69.0,66.2,64.0,88,67,46,30.01,29.90,6,1,0,0.00
2013-9-16,89.2,76.0,69.6,70.0,68.3,65.0,89,78,51,30.05,29.97,7,1,0,0.01
2013-9-17,87.7,77.4,70.6,71.0,68.3,66.0,92,75,48,30.07,29.93,9,1,0,0.00
2013-9-18,89.8,78.1,70.4,70.0,67.7,63.0,91,72,44,30.01,29.87,9,1,0,0.00
2013-9-19,84.1,76.6,72.7,75.0,70.3,68.0,90,81,63,29.94,29.81,6,1,0,0.18
2013-9-20,77.5,71.7,67.3,72.0,68.3,64.0,92,89,81,29.90,29.80,6,1,0,1.18
2013-9-21,81.9,69.7,56.4,64.0,57.7,49.0,89,69,36,29.98,29.87,15,2,0,0.00
2013-9-22,83.0,65.9,50.0,53.0,49.7,46.0,89,60,29,29.95,29.82,8,1,0,0.00
2013-9-23,87.6,68.3,49.8,55.0,50.9,46.0,89,59,27,29.88,29.78,4,0,0,0.00
2013-9-24,93.2,74.3,56.4,62.0,56.7,51.0,85,58,31,29.96,29.85,3,0,0,0.00
2013-9-25,92.9,77.1,61.9,65.0,59.9,57.0,85,59,35,29.91,29.77,3,0,0,0.00
2013-9-26,90.1,77.0,63.8,70.0,60.7,56.0,88,60,34,29.89,29.80,6,1,0,0.00
2013-9-27,88.4,78.6,73.0,73.0,70.1,67.0,85,76,55,29.88,29.78,14,2,0,0.00
2013-9-28,86.9,76.9,65.3,73.0,69.9,62.0,90,79,61,30.01,29.84,10,2,0,0.02
2013-9-29,75.3,66.0,57.9,62.0,59.1,54.0,89,79,59,30.07,29.96,6,1,0,0.00
2013-9-30,89.5,69.9,51.6,63.0,55.7,49.0,92,66,31,29.98,29.82,2,0,0,0.00
2013-10-1,88.6,75.6,59.7,71.0,64.2,55.0,90,70,46,29.91,29.83,7,1,0,0.00
2013-10-2,88.8,78.6,71.7,70.0,68.2,64.0,91,72,49,29.93,29.83,6,1,0,0.00
2013-10-3,89.7,79.0,70.0,70.0,66.6,64.0,86,68,46,29.91,29.80,12,1,0,0.00
2013-10-4,89.3,78.4,71.8,69.0,67.1,66.0,84,70,50,29.89,29.80,10,2,0,0.00
2013-10-5,81.5,70.5,57.7,69.0,58.6,42.0,83,67,51,30.09,29.86,10,2,0,0.00
2013-10-6,77.6,60.8,47.4,49.0,42.9,37.0,89,58,24,30.20,30.07,11,1,0,0.36
2013-10-7,83.1,62.6,44.0,48.0,42.4,38.0,83,54,22,30.22,30.09,5,0,0,0.00
2013-10-8,83.6,64.8,46.9,50.0,46.1,42.0,84,56,28,30.12,30.00,4,0,0,0.00
2013-10-9,78.4,61.9,50.3,59.0,52.8,46.0,90,73,48,30.08,29.97,6,0,0,0.00
2013-10-10,81.9,71.9,64.2,64.0,61.3,58.0,87,71,50,30.03,29.88,7,1,0,0.00
2013-10-11,85.4,76.3,70.1,71.0,67.3,64.0,87,75,54,29.93,29.83,10,1,0,0.00
2013-10-12,87.5,78.6,72.8,72.0,70.2,68.0,90,76,55,30.00,29.88,5,0,0,0.00
2013-10-13,74.5,68.8,64.1,71.0,66.1,62.0,93,91,84,30.16,29.99,6,1,0,1.68
2013-10-14,82.7,73.4,68.7,69.0,67.2,65.0,93,82,59,30.09,29.91,6,1,0,0.02
2013-10-15,77.5,68.1,52.8,68.0,62.9,49.0,89,84,71,30.03,29.88,5,1,0,0.00
2013-10-16,58.4,53.7,50.1,55.0,50.9,48.0,92,90,86,30.15,29.98,5,1,0,1.23
2013-10-17,72.8,58.5,45.6,51.0,48.3,43.0,92,71,44,30.20,30.01,4,0,0,0.00
2013-10-18,73.9,63.1,51.7,63.0,56.8,48.0,91,80,66,30.09,29.89,6,1,0,0.00
2013-10-19,64.8,51.9,42.1,48.0,40.6,36.0,87,69,38,30.25,30.09,7,1,0,0.00
2013-10-20,74.0,55.7,40.4,53.0,45.3,38.0,91,71,47,30.15,29.96,5,1,0,0.00
2013-10-21,76.5,64.7,53.0,64.0,57.1,48.0,89,77,61,30.13,29.94,10,1,0,0.00
2013-10-22,72.5,58.5,46.3,51.0,42.7,35.0,84,60,28,30.22,30.12,6,1,0,0.00
2013-10-23,80.7,58.9,42.1,50.0,42.6,38.0,87,61,26,30.24,30.14,0,0,0,0.00
2013-10-24,79.6,60.6,43.9,49.0,44.8,40.0,86,61,32,30.28,30.17,4,0,0,0.00
2013-10-25,75.1,61.6,46.5,60.0,52.5,44.0,92,74,50,30.35,30.23,4,0,0,0.00
2013-10-26,77.1,68.1,61.5,63.0,60.8,57.0,87,78,62,30.22,30.07,5,1,0,0.00
2013-10-27,74.3,66.4,59.3,63.0,60.3,56.0,90,81,66,30.13,30.01,4,0,0,0.03
2013-10-28,80.0,71.1,64.9,65.0,63.6,61.0,91,78,59,30.07,29.97,10,1,0,0.00
2013-10-29,79.7,73.3,69.2,68.0,65.9,63.0,88,78,63,30.05,29.95,8,2,0,0.00
2013-10-30,79.7,72.8,69.4,70.0,68.0,65.0,91,85,70,29.99,29.79,4,0,0,0.10
2013-10-31,76.1,65.6,46.0,67.0,50.1,36.0,92,63,25,29.92,29.76,7,1,0,0.04
2013-11-1,79.0,60.2,42.3,48.0,39.5,36.0,84,52,22,30.18,29.90,7,0,0,0.00
2013-11-2,70.3,56.3,41.8,42.0,36.9,31.0,79,52,27,30.36,30.18,10,1,0,0.00
2013-11-3,67.3,53.7,36.0,50.0,38.2,32.0,87,60,35,30.26,30.05,12,1,0,0.00
2013-11-4,62.6,60.3,58.0,60.0,55.7,50.0,92,85,70,30.08,29.99,4,0,0,0.08
2013-11-5,71.1,66.7,62.7,65.0,63.2,60.0,92,88,81,30.03,29.92,4,0,0,0.00
2013-11-6,66.6,56.4,47.3,64.0,49.5,37.0,93,78,61,30.39,29.98,14,1,0,0.07
2013-11-7,61.7,49.8,35.6,43.0,35.8,28.0,87,62,35,30.55,30.40,7,1,0,0.00
2013-11-8,61.4,53.0,45.4,45.0,38.8,31.0,84,61,33,30.44,30.18,10,1,0,0.01
2013-11-9,64.2,58.5,51.3,55.0,51.6,43.0,87,78,69,30.22,30.14,6,1,0,0.00
2013-11-10,64.4,57.6,47.9,58.0,53.9,45.0,91,88,80,30.34,30.21,2,0,0,0.00
2013-11-11,74.3,58.1,44.7,55.0,50.3,42.0,93,77,52,30.34,30.20,3,0,0,0.00
2013-11-12,55.9,47.5,36.6,52.0,39.6,21.0,91,75,51,30.70,30.31,14,3,0,0.00
2013-11-13,53.2,39.2,29.2,29.0,24.5,19.0,80,57,37,30.72,30.46,6,1,0,0.00
2013-11-14,60.8,46.5,27.9,45.0,32.9,23.0,84,62,30,30.46,30.10,7,1,0,0.00
2013-11-15,77.0,63.0,51.8,57.0,52.4,45.0,89,70,46,30.09,29.88,6,0,0,0.00
2013-11-16,73.2,66.9,57.6,66.0,61.1,53.0,89,82,70,29.91,29.76,6,1,0,0.00
2013-11-17,84.2,70.0,52.1,67.0,56.1,45.0,92,66,29,29.99,29.79,6,1,0,0.00
2013-11-18,76.1,62.9,48.2,59.0,50.9,42.0,82,66,51,30.15,29.98,4,0,0,0.00
2013-11-19,72.2,60.5,49.4,53.0,48.0,42.0,85,65,41,30.16,30.00,6,1,0,0.00
2013-11-20,69.2,62.7,57.0,64.0,58.4,52.0,93,86,77,30.02,29.90,5,1,0,0.00
2013-11-21,75.6,69.1,59.1,68.0,64.7,55.0,93,86,74,30.10,29.93,6,1,0,0.00
2013-11-22,55.3,34.7,30.2,51.0,32.2,28.0,91,90,86,30.50,30.10,11,3,0,0.51
2013-11-23,35.8,33.2,31.1,34.0,30.9,28.0,92,91,89,30.60,30.49,13,2,0,0.09
2013-11-24,35.7,33.2,31.0,33.0,30.0,28.0,91,88,84,30.61,30.38,14,2,0,0.52
2013-11-25,37.8,34.8,31.0,35.0,32.1,29.0,92,90,86,30.38,30.18,9,2,0,0.27
2013-11-26,48.2,39.1,33.0,33.0,29.7,26.0,89,71,50,30.47,30.25,10,3,0,0.01
2013-11-27,47.6,36.9,27.8,27.0,22.4,16.0,83,59,31,30.57,30.43,6,1,0,0.00
2013-11-28,55.8,35.7,28.0,31.0,13.4,-99.9,85,57,34,30.52,30.40,6,-10,0,0.00
2013-11-29,57.0,44.1,26.7,47.0,37.6,23.0,88,78,65,30.59,30.41,3,0,0,0.00
2013-11-30,63.7,56.2,48.0,54.0,50.2,44.0,90,80,67,30.41,30.22,5,1,0,0.00
2013-12-1,67.7,59.6,53.1,57.0,54.3,50.0,90,83,68,30.23,29.97,5,1,0,0.00
2013-12-2,80.2,60.4,46.1,56.0,46.2,38.0,93,65,24,29.97,29.72,4,0,0,0.00
2013-12-3,83.7,59.2,40.9,46.0,40.1,35.0,91,57,21,29.77,29.65,4,0,0,0.00
2013-12-4,82.4,62.6,48.7,63.0,52.9,41.0,90,73,44,29.82,29.69,1,0,0,0.00
2013-12-5,61.1,37.7,26.3,59.0,31.4,22.0,93,78,65,30.18,29.80,10,3,0,0.00
2013-12-6,29.5,26.8,22.4,27.0,22.8,18.0,89,84,80,30.56,30.15,11,4,0,0.02
2013-12-7,26.3,23.6,20.6,20.0,17.9,14.0,82,79,74,30.60,30.34,11,3,0,0.00
2013-12-8,55.6,36.4,24.7,41.0,30.4,20.0,91,80,56,30.33,30.10,4,0,0,0.01
2013-12-9,39.3,34.9,28.7,37.0,32.5,26.0,92,91,87,30.49,30.13,15,2,0,0.03
2013-12-10,44.3,32.6,24.9,25.0,23.1,21.0,92,70,41,30.62,30.43,7,1,0,0.00
2013-12-11,57.5,39.5,24.4,32.0,26.7,20.0,85,63,37,30.65,30.42,6,1,0,0.00
2013-12-12,53.0,41.2,28.9,34.0,29.5,23.0,81,65,46,30.66,30.35,6,1,0,0.00
2013-12-13,50.1,45.6,41.2,48.0,40.3,32.0,92,82,64,30.35,29.96,5,1,0,0.07
2013-12-14,51.3,43.4,35.2,39.0,32.0,26.0,93,66,46,30.43,29.95,10,2,0,0.01
2013-12-15,60.5,41.8,26.8,31.0,27.0,21.0,82,59,31,30.49,30.34,4,0,0,0.00
2013-12-16,67.5,44.3,26.6,35.0,29.3,22.0,86,61,29,30.39,30.27,5,0,0,0.00
2013-12-17,70.8,47.6,29.9,39.0,32.1,25.0,86,61,25,30.40,30.30,3,0,0,0.00
2013-12-18,67.4,51.9,33.2,52.0,43.2,29.0,91,74,50,30.35,30.06,11,2,0,0.00
2013-12-19,65.8,60.0,52.2,58.0,54.2,49.0,91,81,68,30.05,29.83,12,3,0,0.00
2013-12-20,68.4,63.6,44.0,64.0,58.8,41.0,90,84,73,29.87,29.64,9,2,0,0.01
2013-12-21,65.7,51.2,41.9,54.0,39.9,35.0,94,69,34,29.90,29.59,7,1,0,0.80
2013-12-22,49.2,42.2,32.8,37.0,31.6,24.0,86,67,52,30.45,29.91,9,2,0,0.00
2013-12-23,55.1,38.5,26.2,29.0,25.0,20.0,83,62,32,30.61,30.44,3,0,0,0.00
2013-12-24,59.0,42.1,24.8,34.0,26.3,21.0,88,58,33,30.60,30.31,7,1,0,0.00
2013-12-25,60.9,45.9,33.3,47.0,38.4,30.0,90,76,61,30.48,30.28,10,1,0,0.00
2013-12-26,53.0,43.3,31.3,39.0,35.0,28.0,88,73,57,30.50,30.39,5,1,0,0.00
2013-12-27,52.8,46.2,37.9,44.0,39.5,34.0,90,78,58,30.49,30.37,5,0,0,0.02
2013-12-28,59.5,47.5,34.5,47.0,41.3,31.0,91,80,62,30.37,30.06,8,1,0,0.00
2013-12-29,56.2,44.5,28.1,48.0,39.3,25.0,88,82,72,30.35,30.02,9,2,0,0.00
2013-12-30,45.5,35.3,26.7,29.0,24.4,20.0,86,66,47,30.48,30.31,9,1,0,0.00
2013-12-31,57.7,41.7,29.3,33.0,29.4,25.0,84,64,37,30.54,30.29,5,1,0,0.00
2014-1-1,66.7,48.1,31.8,52.0,40.0,27.0,91,74,57,30.29,30.06,10,2,0,0.00
2014-1-2,47.5,36.3,25.4,33.0,24.2,20.0,79,63,41,30.54,30.25,11,2,0,0.00